Volver al catálogo

GMS-T

ActivoComunicacionesPO
NORAD 47346·PAYLOAD·🇩🇪 Germany

Lanzado Jan 20, 2021 desde Rocket Lab Launch Complex 1

Loading…

Próximos Pases (próximas 24 horas)

TLE

ActualizadoSource: Space-Track

Época: Sep 14, 2026, 14:35 UTC

1 47346U 21004A   26257.60798383 -.00000011  00000-0 -50511-4 0  9997
2 47346  90.1277 242.9218 0003756 128.9493 231.1974 13.16658982271362

Sigue GMS-T en tiempo real con AllMySat

Download on the App Store